Simultaneous Nadir Overpasses (SNOs) Predictions

Prediction of SNOs between GOES-16 and TERRA Satellite Orbit:

Table of predicted SNOs for the next 14.0 days since TLE Epoch: 9/17/2022
Index Date Time (GOES-16) GOES-16 Lat,Lon TERRA Lat,Lon Distance(km) Time Diff (sec)
1 09/19/2022 03:03:11 0.04, -75.19 0.80, -71.72 395.26 80
2 09/19/2022 15:21:45 -0.04, -75.22 0.32, -76.88 189.04 80
3 09/21/2022 15:12:09 -0.04, -75.23 -0.33, -73.92 148.92 80
4 09/22/2022 03:33:31 0.04, -75.21 -0.77, -79.11 442.95 80
5 09/23/2022 14:57:12 -0.04, -75.25 -0.92, -70.95 487.58 80
6 09/24/2022 03:21:15 0.03, -75.23 -0.17, -76.15 104.09 80
7 09/26/2022 03:06:19 0.03, -75.26 0.50, -73.20 235.46 80
8 09/26/2022 15:30:12 -0.03, -75.29 0.62, -78.35 348.29 80
9 09/28/2022 15:17:55 -0.03, -75.32 -0.00, -75.39 8.50 80
10 09/30/2022 15:05:39 -0.03, -75.35 -0.63, -72.42 331.84 80
